Location: Le Rocchette
(44.3500°N, 7.8333°E)
Time: 02:13:32
(UTC+00:00)

PSLV R/B - Pass Details

Date: 01 March 2020
Orbit: 505 x 578 km, 97.8° (Epoch: 08 April)

Event Time Altitude Azimuth Distance (km) Brightness Sun altitude
Rises 03:55:24 0° 26° (NNE) 2,674 7.9 -23.9°
Reaches altitude 10° 03:57:51 10° 42° (NE) 1,792 7.1 -23.5°
Maximum altitude 04:00:57 23° 95° (E) 1,188 6.2 -23.0°
Drops below altitude 10° 04:04:05 10° 148° (SSE) 1,815 6.7 -22.4°
Sets 04:06:34 0° 164° (SSE) 2,718 7.4 -22.0°
